Location: Bottens
(46.6171°N, 6.6605°E)
Time: 14:48:19
(UTC+00:00)

ATLAS 5 CENTAUR R/B - Pass Details

Date: 05 November 2021
Orbit: 497 x 1159 km, 63.4° (Epoch: 25 November)

Event Time Altitude Azimuth Distance (km) Brightness Sun altitude
Rises 17:27:25 0° 311° (NW) 2,882 5.6 -13.2°
Reaches altitude 10° 17:31:23 10° 347° (NNW) 2,130 4.4 -13.9°
Maximum altitude 17:32:52 11° 6° (N) 2,106 4.1 -14.2°
Drops below altitude 10° 17:34:26 10° 24° (NNE) 2,257 4.1 -14.4°
Enters shadow 17:35:20 - 32° (NNE) 2,413 4.2 -14.6°
